FLOCK 4E'-4 (46821 NORAD) Tracking and Keplerian Element Data

This shows tracking and keplerian element data for the satellite.

Feedback or suggestion? Click here.




ElementValue
Catalog46821
NameFLOCK 4E'-4
Epoch Orbit544
Epoch Day339.07033031
Epoch Year2020
RAAN39.1625
Inclination97.4966
Eccentricity0.0015481
Argument of Perigee162.9845
Mean Anonmoly288.6005
Mean Motion15.17545399
Decay Rate1.955E-05
L11 46821U 20077J 20339.07033031 .00001955 00000-0 10054-3 0 9994
L22 46821 97.4966 39.1625 0015481 162.9845 288.6005 15.17545399 5445

Live tracking and technical data element details for FLOCK 4E'-4 (NORAD 46821). FLOCK 4E'-4 can be tracked NOW for your location showing map with azimuth and elevation plus other details from your city location.

Track the satellite on the map from your city or location and see movement details for azimuth, elevation, latitude, longitude, range, height, and movement on the map or in text.







IsCatalogInMostPopularTable: catalog: 46821, numindb: 13
Update: records affected: 1



GetName: 46821 FLOCK 4E'-4

Hit Count: updated at: Sat, 05 Dec 2020 05:15:39 GMT